Tracking 22223 objects as of 26-Jan-2021
HD Live streaming from Space Station
objects crossing your sky now

INSAT 3B

Track INSAT 3B now!
INSAT 3B is classified as:


NORAD ID: 26108
Int'l Code: 2000-016B
Perigee: 35,948.1 km
Apogee: 35,985.8 km
Inclination: 6.8 °
Period: 1,445.0 minutes
Semi major axis: 42337 km
RCS: 5.0119 m2 (large)
Launch date: March 21, 2000
Source: India (IND)
Launch site: FRENCH GUIANA (FRGUI)

Voice, data and fax transmissions.
aabbcc
Your satellite tracking list
Your tracking list is empty




NASA's NSSDC Master Catalog

Two Line Element Set (TLE):
1 26108U 00016B   21025.76457917  .00000114  00000-0  00000-0 0  9996
2 26108   6.8166  59.8924 0004446 204.9820 358.9638  0.99657036 31816
Source of the keplerian elements: AFSPC